Time,TemperatureF,DewpointF,PressureIn,WindDirection,WindDirectionDegrees,WindSpeedMPH,WindSpeedGustMPH,Humidity,HourlyPrecipIn,Conditions,Clouds,dailyrainin,SoftwareType,DateUTC
2015-07-06 00:09:00,64.2,63.0,30.03,East,98,0.0,0.0,95,0.00,,,0.00,weatherlink.com 1.10,2015-07-06 04:09:00,
2015-07-06 00:24:00,64.2,63.0,30.02,East,98,0.0,0.0,95,0.00,,,0.00,weatherlink.com 1.10,2015-07-06 04:24:00,
2015-07-06 00:39:00,63.7,62.0,30.02,East,98,0.0,0.0,95,0.00,,,0.00,weatherlink.com 1.10,2015-07-06 04:39:00,
2015-07-06 00:54:00,63.5,62.0,30.02,East,98,0.0,0.0,96,0.00,,,0.00,weatherlink.com 1.10,2015-07-06 04:54:00,
2015-07-06 01:09:00,63.1,62.0,30.02,East,98,0.0,0.0,96,0.00,,,0.00,weatherlink.com 1.10,2015-07-06 05:09:00,
2015-07-06 01:24:00,62.6,62.0,30.01,East,98,0.0,0.0,96,0.00,,,0.00,weatherlink.com 1.10,2015-07-06 05:24:00,
2015-07-06 01:39:00,62.3,61.0,30.01,East,98,0.0,0.0,96,0.00,,,0.00,weatherlink.com 1.10,2015-07-06 05:39:00,
2015-07-06 01:54:00,62.0,61.0,30.00,East,98,0.0,0.0,96,0.00,,,0.00,weatherlink.com 1.10,2015-07-06 05:54:00,
2015-07-06 02:09:00,62.0,61.0,30.00,East,98,0.0,2.0,96,0.00,,,0.00,weatherlink.com 1.10,2015-07-06 06:09:00,
2015-07-06 02:24:00,61.8,61.0,30.00,East,98,1.0,2.0,97,0.00,,,0.00,weatherlink.com 1.10,2015-07-06 06:24:00,
2015-07-06 02:39:00,61.2,60.0,29.99,East,98,0.0,1.0,96,0.00,,,0.00,weatherlink.com 1.10,2015-07-06 06:39:00,
2015-07-06 02:54:00,61.1,60.0,29.99,East,98,0.0,1.0,97,0.00,,,0.00,weatherlink.com 1.10,2015-07-06 06:54:00,
2015-07-06 03:09:00,60.8,60.0,29.99,East,98,0.0,1.0,97,0.00,,,0.00,weatherlink.com 1.10,2015-07-06 07:09:00,
2015-07-06 03:24:00,60.8,60.0,29.99,East,98,0.0,0.0,97,0.00,,,0.00,weatherlink.com 1.10,2015-07-06 07:24:00,
2015-07-06 03:39:00,60.5,60.0,30.00,East,98,0.0,0.0,97,0.00,,,0.00,weatherlink.com 1.10,2015-07-06 07:39:00,
2015-07-06 03:54:00,60.3,60.0,29.99,East,98,0.0,0.0,97,0.00,,,0.00,weatherlink.com 1.10,2015-07-06 07:54:00,
2015-07-06 04:09:00,60.1,59.0,30.00,East,98,0.0,0.0,97,0.00,,,0.00,weatherlink.com 1.10,2015-07-06 08:09:00,
2015-07-06 04:24:00,59.9,59.0,30.00,East,98,0.0,0.0,97,0.00,,,0.00,weatherlink.com 1.10,2015-07-06 08:24:00,
2015-07-06 04:39:00,59.6,59.0,30.00,East,98,0.0,0.0,97,0.00,,,0.00,weatherlink.com 1.10,2015-07-06 08:39:00,
2015-07-06 04:54:00,59.5,59.0,30.01,East,98,0.0,0.0,97,0.00,,,0.00,weatherlink.com 1.10,2015-07-06 08:54:00,
2015-07-06 05:10:00,59.3,59.0,30.00,East,98,0.0,0.0,97,0.00,,,0.00,weatherlink.com 1.10,2015-07-06 09:10:00,
2015-07-06 05:24:00,59.1,58.0,30.01,East,98,0.0,0.0,97,0.00,,,0.00,weatherlink.com 1.10,2015-07-06 09:24:00,
2015-07-06 05:39:00,58.8,58.0,30.02,East,98,0.0,0.0,97,0.00,,,0.00,weatherlink.com 1.10,2015-07-06 09:39:00,
2015-07-06 05:54:00,58.9,58.0,30.03,East,98,0.0,0.0,97,0.00,,,0.00,weatherlink.com 1.10,2015-07-06 09:54:00,
2015-07-06 06:09:00,58.9,58.0,30.04,East,98,0.0,0.0,97,0.00,,,0.00,weatherlink.com 1.10,2015-07-06 10:09:00,
2015-07-06 06:24:00,58.5,58.0,30.03,East,98,0.0,0.0,97,0.00,,,0.00,weatherlink.com 1.10,2015-07-06 10:24:00,
2015-07-06 06:39:00,58.6,58.0,30.03,NNW,338,0.0,1.0,97,0.00,,,0.00,weatherlink.com 1.10,2015-07-06 10:39:00,
2015-07-06 06:54:00,59.2,58.0,30.04,NNW,338,0.0,1.0,97,0.00,,,0.00,weatherlink.com 1.10,2015-07-06 10:54:00,
2015-07-06 07:09:00,59.6,59.0,30.04,NNW,348,0.0,0.0,97,0.00,,,0.00,weatherlink.com 1.10,2015-07-06 11:09:00,
2015-07-06 07:24:00,60.7,60.0,30.04,NNW,348,0.0,0.0,98,0.00,,,0.00,weatherlink.com 1.10,2015-07-06 11:24:00,
2015-07-06 07:39:00,61.9,61.0,30.04,NNW,348,0.0,0.0,98,0.00,,,0.00,weatherlink.com 1.10,2015-07-06 11:39:00,
2015-07-06 07:54:00,62.8,62.0,30.04,NNW,348,0.0,0.0,97,0.00,,,0.00,weatherlink.com 1.10,2015-07-06 11:54:00,
2015-07-06 08:09:00,64.3,63.0,30.05,NNW,348,0.0,0.0,95,0.00,,,0.00,weatherlink.com 1.10,2015-07-06 12:09:00,
2015-07-06 08:25:00,65.7,63.0,30.05,NW,313,1.0,4.0,92,0.00,,,0.00,weatherlink.com 1.10,2015-07-06 12:25:00,
2015-07-06 08:40:00,66.5,64.0,30.04,North,355,1.0,3.0,90,0.00,,,0.00,weatherlink.com 1.10,2015-07-06 12:40:00,
2015-07-06 08:55:00,67.4,63.0,30.05,NNE,13,3.0,4.0,86,0.00,,,0.00,weatherlink.com 1.10,2015-07-06 12:55:00,
2015-07-06 09:10:00,68.6,65.0,30.06,NW,325,1.0,3.0,87,0.00,,,0.00,weatherlink.com 1.10,2015-07-06 13:10:00,
2015-07-06 09:25:00,69.8,66.0,30.05,North,355,1.0,3.0,86,0.00,,,0.00,weatherlink.com 1.10,2015-07-06 13:25:00,
2015-07-06 09:40:00,71.0,65.0,30.04,NE,53,2.0,3.0,82,0.00,,,0.00,weatherlink.com 1.10,2015-07-06 13:40:00,
2015-07-06 09:55:00,72.0,66.0,30.05,NE,47,1.0,3.0,81,0.00,,,0.00,weatherlink.com 1.10,2015-07-06 13:55:00,
2015-07-06 10:10:00,73.5,66.0,30.04,NW,318,2.0,2.0,78,0.00,,,0.00,weatherlink.com 1.10,2015-07-06 14:10:00,
2015-07-06 10:25:00,73.5,66.0,30.04,NW,316,1.0,6.0,76,0.00,,,0.00,weatherlink.com 1.10,2015-07-06 14:25:00,
2015-07-06 10:40:00,74.3,66.0,30.04,WSW,240,5.0,6.0,74,0.00,,,0.00,weatherlink.com 1.10,2015-07-06 14:40:00,
2015-07-06 10:56:00,74.4,65.0,30.04,SW,223,5.0,6.0,73,0.00,,,0.00,weatherlink.com 1.10,2015-07-06 14:56:00,
2015-07-06 11:10:00,75.4,65.0,30.04,West,272,0.0,7.0,70,0.00,,,0.00,weatherlink.com 1.10,2015-07-06 15:10:00,
2015-07-06 11:25:00,75.4,65.0,30.04,WSW,244,3.0,7.0,71,0.00,,,0.00,weatherlink.com 1.10,2015-07-06 15:25:00,
2015-07-06 11:40:00,76.3,65.0,30.03,SSW,211,4.0,6.0,68,0.00,,,0.00,weatherlink.com 1.10,2015-07-06 15:40:00,
2015-07-06 11:55:00,76.0,64.0,30.03,West,273,2.0,8.0,67,0.00,,,0.00,weatherlink.com 1.10,2015-07-06 15:55:00,
2015-07-06 12:10:00,77.3,66.0,30.03,South,184,4.0,5.0,69,0.00,,,0.00,weatherlink.com 1.10,2015-07-06 16:10:00,
2015-07-06 12:25:00,77.6,64.0,30.03,SW,234,2.0,6.0,64,0.00,,,0.00,weatherlink.com 1.10,2015-07-06 16:25:00,
2015-07-06 12:40:00,77.5,63.0,30.03,South,175,1.0,8.0,62,0.00,,,0.00,weatherlink.com 1.10,2015-07-06 16:40:00,
2015-07-06 12:55:00,78.2,65.0,30.03,SW,235,2.0,11.0,64,0.00,,,0.00,weatherlink.com 1.10,2015-07-06 16:55:00,
2015-07-06 13:10:00,78.1,64.0,30.03,NW,312,2.0,7.0,63,0.00,,,0.00,weatherlink.com 1.10,2015-07-06 17:10:00,
2015-07-06 13:25:00,78.6,64.0,30.03,SSE,147,4.0,6.0,61,0.00,,,0.00,weatherlink.com 1.10,2015-07-06 17:25:00,
2015-07-06 13:40:00,79.1,65.0,30.02,WNW,284,2.0,8.0,63,0.00,,,0.00,weatherlink.com 1.10,2015-07-06 17:40:00,
2015-07-06 13:55:00,79.4,65.0,30.02,South,188,3.0,7.0,62,0.00,,,0.00,weatherlink.com 1.10,2015-07-06 17:55:00,
2015-07-06 14:10:00,78.8,64.0,30.02,South,171,2.0,7.0,61,0.00,,,0.00,weatherlink.com 1.10,2015-07-06 18:10:00,
2015-07-06 14:26:00,79.8,66.0,30.02,SW,223,3.0,7.0,62,0.00,,,0.00,weatherlink.com 1.10,2015-07-06 18:26:00,
2015-07-06 14:40:00,79.5,64.0,30.02,SSW,207,0.0,11.0,59,0.00,,,0.00,weatherlink.com 1.10,2015-07-06 18:40:00,
2015-07-06 14:55:00,80.8,65.0,30.01,SSW,213,2.0,7.0,58,0.00,,,0.00,weatherlink.com 1.10,2015-07-06 18:55:00,
2015-07-06 15:10:00,79.7,66.0,30.01,WSW,243,5.0,5.0,63,0.00,,,0.00,weatherlink.com 1.10,2015-07-06 19:10:00,
2015-07-06 15:25:00,80.2,66.0,30.00,WSW,240,1.0,8.0,62,0.00,,,0.00,weatherlink.com 1.10,2015-07-06 19:25:00,
2015-07-06 15:40:00,81.3,67.0,30.00,South,174,7.0,8.0,62,0.00,,,0.00,weatherlink.com 1.10,2015-07-06 19:40:00,
2015-07-06 15:55:00,81.0,66.0,29.99,South,186,1.0,5.0,61,0.00,,,0.00,weatherlink.com 1.10,2015-07-06 19:55:00,
2015-07-06 16:11:00,82.1,66.0,29.98,WSW,257,1.0,7.0,58,0.00,,,0.00,weatherlink.com 1.10,2015-07-06 20:11:00,
2015-07-06 16:26:00,82.3,67.0,29.98,South,169,5.0,6.0,60,0.00,,,0.00,weatherlink.com 1.10,2015-07-06 20:26:00,
2015-07-06 16:41:00,82.1,65.0,29.97,South,173,3.0,7.0,57,0.00,,,0.00,weatherlink.com 1.10,2015-07-06 20:41:00,
2015-07-06 16:56:00,81.8,66.0,29.96,SSW,197,2.0,8.0,59,0.00,,,0.00,weatherlink.com 1.10,2015-07-06 20:56:00,
2015-07-06 17:11:00,81.6,67.0,29.96,South,184,4.0,8.0,61,0.00,,,0.00,weatherlink.com 1.10,2015-07-06 21:11:00,
2015-07-06 17:26:00,81.8,67.0,29.96,South,177,2.0,7.0,61,0.00,,,0.00,weatherlink.com 1.10,2015-07-06 21:26:00,
2015-07-06 17:41:00,82.0,66.0,29.95,SSW,213,4.0,4.0,59,0.00,,,0.00,weatherlink.com 1.10,2015-07-06 21:41:00,
2015-07-06 17:56:00,82.2,65.0,29.95,South,170,2.0,5.0,56,0.00,,,0.00,weatherlink.com 1.10,2015-07-06 21:56:00,
2015-07-06 18:11:00,82.4,66.0,29.95,South,169,4.0,4.0,57,0.00,,,0.00,weatherlink.com 1.10,2015-07-06 22:11:00,
2015-07-06 18:26:00,82.3,66.0,29.94,SW,217,3.0,4.0,58,0.00,,,0.00,weatherlink.com 1.10,2015-07-06 22:26:00,
2015-07-06 18:41:00,82.0,66.0,29.94,SSW,205,2.0,6.0,58,0.00,,,0.00,weatherlink.com 1.10,2015-07-06 22:41:00,
2015-07-06 18:56:00,81.9,65.0,29.94,West,273,2.0,7.0,57,0.00,,,0.00,weatherlink.com 1.10,2015-07-06 22:56:00,
2015-07-06 19:11:00,81.5,66.0,29.93,South,186,3.0,7.0,60,0.00,,,0.00,weatherlink.com 1.10,2015-07-06 23:11:00,
2015-07-06 19:26:00,81.4,67.0,29.94,WSW,243,1.0,3.0,62,0.00,,,0.00,weatherlink.com 1.10,2015-07-06 23:26:00,
2015-07-06 19:41:00,80.4,67.0,29.94,South,190,2.0,5.0,64,0.00,,,0.00,weatherlink.com 1.10,2015-07-06 23:41:00,
2015-07-06 19:56:00,79.9,68.0,29.94,South,176,1.0,3.0,66,0.00,,,0.00,weatherlink.com 1.10,2015-07-06 23:56:00,
2015-07-06 20:11:00,79.1,68.0,29.93,South,178,1.0,3.0,68,0.00,,,0.00,weatherlink.com 1.10,2015-07-07 00:11:00,
2015-07-06 20:26:00,77.4,68.0,29.94,South,178,2.0,2.0,72,0.00,,,0.00,weatherlink.com 1.10,2015-07-07 00:26:00,
2015-07-06 20:41:00,75.5,68.0,29.94,South,178,0.0,0.0,78,0.00,,,0.00,weatherlink.com 1.10,2015-07-07 00:41:00,
2015-07-06 20:56:00,74.2,69.0,29.93,South,178,0.0,0.0,84,0.00,,,0.00,weatherlink.com 1.10,2015-07-07 00:56:00,
2015-07-06 21:11:00,73.2,69.0,29.93,SSE,165,1.0,2.0,85,0.00,,,0.00,weatherlink.com 1.10,2015-07-07 01:11:00,
2015-07-06 21:26:00,72.3,68.0,29.93,SSE,165,1.0,2.0,87,0.00,,,0.00,weatherlink.com 1.10,2015-07-07 01:26:00,
2015-07-06 21:41:00,72.0,68.0,29.93,SSE,163,2.0,4.0,87,0.00,,,0.00,weatherlink.com 1.10,2015-07-07 01:41:00,
2015-07-06 21:56:00,72.0,68.0,29.93,SSW,198,2.0,4.0,86,0.00,,,0.00,weatherlink.com 1.10,2015-07-07 01:56:00,
2015-07-06 22:11:00,72.3,68.0,29.93,SSE,155,1.0,7.0,85,0.00,,,0.00,weatherlink.com 1.10,2015-07-07 02:11:00,
2015-07-06 22:26:00,72.0,67.0,29.94,South,169,2.0,3.0,85,0.00,,,0.00,weatherlink.com 1.10,2015-07-07 02:26:00,